Time,TemperatureF,DewpointF,PressureIn,WindDirection,WindDirectionDegrees,WindSpeedMPH,WindSpeedGustMPH,Humidity,HourlyPrecipIn,Conditions,Clouds,dailyrainin,SoftwareType,DateUTC
2013-09-23 00:01:00,66.9,29.9,29.82,SE,130,0.0,0.0,25,0.00,,,-99.99,Weather View 32 v60,2013-09-23 04:01:00,
2013-09-23 00:06:00,66.9,29.9,29.82,SE,130,0.0,0.0,25,0.00,,,-99.99,Weather View 32 v60,2013-09-23 04:06:00,
2013-09-23 00:11:00,66.7,29.7,29.82,SE,130,0.0,0.0,25,0.00,,,-99.99,Weather View 32 v60,2013-09-23 04:11:00,
2013-09-23 00:16:00,66.7,29.7,29.82,SE,130,0.0,0.0,25,0.00,,,-99.99,Weather View 32 v60,2013-09-23 04:16:00,
2013-09-23 00:24:00,66.6,29.6,29.82,SE,130,0.0,0.0,25,0.00,,,-99.99,Weather View 32 v60,2013-09-23 04:24:00,
2013-09-23 00:31:00,66.6,29.6,29.82,SE,130,0.0,0.0,25,0.00,,,-99.99,Weather View 32 v60,2013-09-23 04:31:00,
2013-09-23 00:41:00,66.4,29.4,29.82,SE,130,0.0,0.0,25,0.00,,,-99.99,Weather View 32 v60,2013-09-23 04:41:00,
2013-09-23 00:46:00,66.4,29.4,29.82,SE,130,0.0,0.0,25,0.00,,,-99.99,Weather View 32 v60,2013-09-23 04:46:00,
2013-09-23 00:56:00,66.4,29.4,29.82,SE,130,0.0,0.0,25,0.00,,,-99.99,Weather View 32 v60,2013-09-23 04:56:00,
2013-09-23 01:01:00,66.4,29.4,29.82,SE,130,0.0,0.0,25,0.00,,,-99.99,Weather View 32 v60,2013-09-23 05:01:00,
2013-09-23 01:11:00,66.4,29.4,29.82,SE,130,0.0,0.0,25,0.00,,,-99.99,Weather View 32 v60,2013-09-23 05:11:00,
2013-09-23 01:16:00,66.4,29.4,29.82,SE,130,0.0,0.0,25,0.00,,,-99.99,Weather View 32 v60,2013-09-23 05:16:00,
2013-09-23 01:21:00,66.4,29.4,29.82,SE,130,0.0,0.0,25,0.00,,,-99.99,Weather View 32 v60,2013-09-23 05:21:00,
2013-09-23 01:26:00,66.4,29.4,29.82,SE,130,0.0,0.0,25,0.00,,,-99.99,Weather View 32 v60,2013-09-23 05:26:00,
2013-09-23 01:31:00,66.6,29.6,29.82,SE,130,0.0,0.0,25,0.00,,,-99.99,Weather View 32 v60,2013-09-23 05:31:00,
2013-09-23 01:41:00,66.6,29.6,29.82,SE,130,0.0,0.0,25,0.00,,,-99.99,Weather View 32 v60,2013-09-23 05:41:00,
2013-09-23 01:46:00,66.6,29.6,29.82,SE,130,0.0,0.0,25,0.00,,,-99.99,Weather View 32 v60,2013-09-23 05:46:00,
2013-09-23 01:56:00,66.6,29.6,29.82,SE,130,0.0,0.0,25,0.00,,,-99.99,Weather View 32 v60,2013-09-23 05:56:00,
2013-09-23 02:01:00,66.4,29.4,29.82,SE,130,0.0,0.0,25,0.00,,,-99.99,Weather View 32 v60,2013-09-23 06:01:00,
2013-09-23 02:11:00,66.4,29.4,29.82,SE,130,0.0,0.0,25,0.00,,,-99.99,Weather View 32 v60,2013-09-23 06:11:00,
2013-09-23 02:16:00,66.4,29.4,29.82,SE,130,0.0,0.0,25,0.00,,,-99.99,Weather View 32 v60,2013-09-23 06:16:00,
2013-09-23 02:26:00,66.2,29.3,29.82,SE,130,0.0,0.0,25,0.00,,,-99.99,Weather View 32 v60,2013-09-23 06:26:00,
2013-09-23 02:31:00,66.2,29.3,29.82,SE,130,0.0,0.0,25,0.00,,,-99.99,Weather View 32 v60,2013-09-23 06:31:00,
2013-09-23 02:37:00,66.2,29.3,29.82,SE,130,0.0,0.0,25,0.00,,,-99.99,Weather View 32 v60,2013-09-23 06:37:00,
2013-09-23 02:46:00,66.0,30.1,29.82,SE,130,0.0,0.0,26,0.00,,,-99.99,Weather View 32 v60,2013-09-23 06:46:00,
2013-09-23 02:51:00,66.0,30.1,29.82,SE,130,0.0,0.0,26,0.00,,,-99.99,Weather View 32 v60,2013-09-23 06:51:00,
2013-09-23 03:01:00,65.8,29.9,29.82,SE,130,0.0,0.0,26,0.00,,,-99.99,Weather View 32 v60,2013-09-23 07:01:00,
2013-09-23 03:06:00,65.8,29.9,29.82,SE,130,0.0,0.0,26,0.00,,,-99.99,Weather View 32 v60,2013-09-23 07:06:00,
2013-09-23 03:16:00,65.7,29.8,29.82,SE,130,0.0,0.0,26,0.00,,,-99.99,Weather View 32 v60,2013-09-23 07:16:00,
2013-09-23 03:21:00,65.7,30.7,29.82,SE,130,0.0,0.0,27,0.00,,,-99.99,Weather View 32 v60,2013-09-23 07:21:00,
2013-09-23 03:31:00,65.7,30.7,29.82,SE,130,0.0,0.0,27,0.00,,,-99.99,Weather View 32 v60,2013-09-23 07:31:00,
2013-09-23 03:36:00,65.7,30.7,29.82,SE,130,0.0,0.0,27,0.00,,,-99.99,Weather View 32 v60,2013-09-23 07:36:00,
2013-09-23 03:46:00,65.5,30.5,29.82,SE,130,0.0,0.0,27,0.00,,,-99.99,Weather View 32 v60,2013-09-23 07:46:00,
2013-09-23 03:51:00,65.5,30.5,29.82,SE,130,0.0,0.0,27,0.00,,,-99.99,Weather View 32 v60,2013-09-23 07:51:00,
2013-09-23 04:01:00,65.3,31.3,29.82,SE,130,0.0,0.0,28,0.00,,,-99.99,Weather View 32 v60,2013-09-23 08:01:00,
2013-09-23 04:06:00,65.1,31.1,29.82,SE,130,0.0,0.0,28,0.00,,,-99.99,Weather View 32 v60,2013-09-23 08:06:00,
2013-09-23 04:16:00,65.1,32.0,29.82,SE,130,0.0,0.0,29,0.00,,,-99.99,Weather View 32 v60,2013-09-23 08:16:00,
2013-09-23 04:21:00,65.1,32.0,29.82,SE,130,0.0,0.0,29,0.00,,,-99.99,Weather View 32 v60,2013-09-23 08:21:00,
2013-09-23 04:27:00,64.9,31.8,29.82,SE,130,0.0,0.0,29,0.00,,,-99.99,Weather View 32 v60,2013-09-23 08:27:00,
2013-09-23 04:36:00,64.8,31.7,29.82,SE,130,0.0,0.0,29,0.00,,,-99.99,Weather View 32 v60,2013-09-23 08:36:00,
2013-09-23 04:41:00,64.8,31.7,29.82,SE,130,0.0,0.0,29,0.00,,,-99.99,Weather View 32 v60,2013-09-23 08:41:00,
2013-09-23 04:46:00,64.8,31.7,29.82,SE,130,0.0,0.0,29,0.00,,,-99.99,Weather View 32 v60,2013-09-23 08:46:00,
2013-09-23 04:56:00,64.8,32.5,29.85,SE,130,0.0,0.0,30,0.00,,,-99.99,Weather View 32 v60,2013-09-23 08:56:00,
2013-09-23 05:01:00,64.8,32.5,29.85,SE,130,0.0,0.0,30,0.00,,,-99.99,Weather View 32 v60,2013-09-23 09:01:00,
2013-09-23 05:07:00,64.8,32.5,29.85,SE,130,0.0,0.0,30,0.00,,,-99.99,Weather View 32 v60,2013-09-23 09:07:00,
2013-09-23 05:16:00,64.8,32.5,29.85,SE,130,0.0,0.0,30,0.00,,,-99.99,Weather View 32 v60,2013-09-23 09:16:00,
2013-09-23 05:21:00,64.8,32.5,29.85,SE,130,0.0,0.0,30,0.00,,,-99.99,Weather View 32 v60,2013-09-23 09:21:00,
2013-09-23 05:27:00,64.8,32.5,29.85,SE,130,0.0,0.0,30,0.00,,,-99.99,Weather View 32 v60,2013-09-23 09:27:00,
2013-09-23 05:36:00,64.6,32.4,29.85,SE,130,0.0,0.0,30,0.00,,,-99.99,Weather View 32 v60,2013-09-23 09:36:00,
2013-09-23 05:41:00,64.4,32.2,29.85,SE,130,0.0,0.0,30,0.00,,,-99.99,Weather View 32 v60,2013-09-23 09:41:00,
2013-09-23 05:51:00,64.2,32.1,29.85,SE,130,0.0,0.0,30,0.00,,,-99.99,Weather View 32 v60,2013-09-23 09:51:00,
2013-09-23 05:56:00,64.0,31.9,29.85,SE,130,0.0,0.0,30,0.00,,,-99.99,Weather View 32 v60,2013-09-23 09:56:00,
2013-09-23 06:06:00,63.9,31.8,29.85,SE,130,0.0,0.0,30,0.00,,,-99.99,Weather View 32 v60,2013-09-23 10:06:00,
2013-09-23 06:11:00,63.9,30.9,29.85,SE,130,0.0,0.0,29,0.00,,,-99.99,Weather View 32 v60,2013-09-23 10:11:00,
2013-09-23 06:21:00,63.7,30.8,29.85,SE,130,0.0,0.0,29,0.00,,,-99.99,Weather View 32 v60,2013-09-23 10:21:00,
2013-09-23 06:26:00,63.7,30.8,29.88,SE,130,0.0,0.0,29,0.00,,,-99.99,Weather View 32 v60,2013-09-23 10:26:00,
2013-09-23 06:36:00,63.7,30.8,29.88,SE,130,0.0,0.0,29,0.00,,,-99.99,Weather View 32 v60,2013-09-23 10:36:00,
2013-09-23 06:41:00,63.7,30.8,29.88,SE,130,0.0,0.0,29,0.00,,,-99.99,Weather View 32 v60,2013-09-23 10:41:00,
2013-09-23 06:51:00,63.7,30.8,29.88,SE,130,0.0,0.0,29,0.00,,,-99.99,Weather View 32 v60,2013-09-23 10:51:00,
2013-09-23 06:56:00,63.7,30.8,29.88,SE,130,0.0,0.0,29,0.00,,,-99.99,Weather View 32 v60,2013-09-23 10:56:00,
2013-09-23 07:01:00,63.7,30.8,29.88,SE,130,0.0,0.0,29,0.00,,,-99.99,Weather View 32 v60,2013-09-23 11:01:00,
2013-09-23 07:07:00,63.7,30.8,29.88,SE,130,0.0,0.0,29,0.00,,,-99.99,Weather View 32 v60,2013-09-23 11:07:00,
2013-09-23 07:16:00,63.9,30.9,29.88,SE,130,0.0,0.0,29,0.00,,,-99.99,Weather View 32 v60,2013-09-23 11:16:00,
2013-09-23 07:21:00,63.9,30.0,29.88,SE,130,0.0,0.0,28,0.00,,,-99.99,Weather View 32 v60,2013-09-23 11:21:00,
2013-09-23 07:29:00,63.9,30.0,29.91,SE,130,0.0,0.0,28,0.00,,,-99.99,Weather View 32 v60,2013-09-23 11:29:00,
2013-09-23 07:36:00,63.9,30.0,29.91,SE,130,0.0,0.0,28,0.00,,,-99.99,Weather View 32 v60,2013-09-23 11:36:00,
2013-09-23 07:46:00,63.9,30.0,29.91,SE,130,0.0,0.0,28,0.00,,,-99.99,Weather View 32 v60,2013-09-23 11:46:00,
2013-09-23 07:56:00,63.9,29.2,29.91,SE,130,0.0,0.0,27,0.00,,,-99.99,Weather View 32 v60,2013-09-23 11:56:00,
2013-09-23 08:01:00,63.9,29.2,29.91,SE,130,0.0,0.0,27,0.00,,,-99.99,Weather View 32 v60,2013-09-23 12:01:00,
2013-09-23 08:11:00,63.9,29.2,29.91,SE,130,0.0,0.0,27,0.00,,,-99.99,Weather View 32 v60,2013-09-23 12:11:00,
2013-09-23 08:17:00,63.9,29.2,29.91,SE,130,0.0,0.0,27,0.00,,,-99.99,Weather View 32 v60,2013-09-23 12:17:00,
2013-09-23 08:27:00,64.0,29.3,29.91,SE,130,0.0,0.0,27,0.00,,,-99.99,Weather View 32 v60,2013-09-23 12:27:00,
2013-09-23 08:36:00,64.2,29.5,29.91,SE,130,0.0,0.0,27,0.00,,,-99.99,Weather View 32 v60,2013-09-23 12:36:00,
2013-09-23 08:41:00,64.4,29.6,29.94,SE,130,0.0,0.0,27,0.00,,,-99.99,Weather View 32 v60,2013-09-23 12:41:00,
2013-09-23 08:51:00,64.4,29.6,29.94,SE,130,0.0,0.0,27,0.00,,,-99.99,Weather View 32 v60,2013-09-23 12:51:00,
2013-09-23 09:01:00,64.8,29.9,29.94,SE,130,0.0,0.0,27,0.00,,,-99.99,Weather View 32 v60,2013-09-23 13:01:00,
2013-09-23 09:11:00,65.1,30.2,29.94,NNE,20,0.0,0.0,27,0.00,,,-99.99,Weather View 32 v60,2013-09-23 13:11:00,
2013-09-23 09:16:00,65.5,30.5,29.94,NNE,20,0.0,0.0,27,0.00,,,-99.99,Weather View 32 v60,2013-09-23 13:16:00,
2013-09-23 09:26:00,65.7,30.7,29.94,SSE,163,0.0,0.0,27,0.00,,,-99.99,Weather View 32 v60,2013-09-23 13:26:00,
2013-09-23 09:31:00,65.8,30.8,29.94,South,170,0.0,0.0,27,0.00,,,-99.99,Weather View 32 v60,2013-09-23 13:31:00,
2013-09-23 09:36:00,65.8,30.8,29.94,South,170,0.0,0.0,27,0.00,,,-99.99,Weather View 32 v60,2013-09-23 13:36:00,
2013-09-23 09:46:00,66.2,31.2,29.94,SW,231,0.0,0.0,27,0.00,,,-99.99,Weather View 32 v60,2013-09-23 13:46:00,
2013-09-23 09:51:00,66.2,30.2,29.94,SW,231,0.0,0.0,26,0.00,,,-99.99,Weather View 32 v60,2013-09-23 13:51:00,
2013-09-23 09:56:00,66.4,30.4,29.94,ENE,57,0.0,0.0,26,0.00,,,-99.99,Weather View 32 v60,2013-09-23 13:56:00,
2013-09-23 10:01:00,66.6,30.5,29.94,SE,126,0.0,0.0,26,0.00,,,-99.99,Weather View 32 v60,2013-09-23 14:01:00,
2013-09-23 10:11:00,66.9,30.8,29.94,SSE,165,0.0,0.0,26,0.00,,,-99.99,Weather View 32 v60,2013-09-23 14:11:00,
2013-09-23 10:21:00,67.5,30.3,29.94,ESE,103,0.0,0.0,25,0.00,,,-99.99,Weather View 32 v60,2013-09-23 14:21:00,
2013-09-23 10:30:00,67.6,30.5,29.94,ESE,104,0.0,0.0,25,0.00,,,-99.99,Weather View 32 v60,2013-09-23 14:30:00,
2013-09-23 10:36:00,68.0,30.8,29.94,ESE,104,0.0,0.0,25,0.00,,,-99.99,Weather View 32 v60,2013-09-23 14:36:00,
2013-09-23 10:42:00,68.2,30.9,29.94,ESE,104,0.0,0.0,25,0.00,,,-99.99,Weather View 32 v60,2013-09-23 14:42:00,
2013-09-23 10:47:00,68.5,31.2,29.94,ESE,104,0.0,0.0,25,0.00,,,-99.99,Weather View 32 v60,2013-09-23 14:47:00,
2013-09-23 10:52:00,68.9,31.5,29.94,ESE,104,0.0,0.0,25,0.00,,,-99.99,Weather View 32 v60,2013-09-23 14:52:00,
2013-09-23 11:02:00,69.4,31.0,29.94,ESE,104,0.0,0.0,24,0.00,,,-99.99,Weather View 32 v60,2013-09-23 15:02:00,
2013-09-23 11:11:00,69.6,30.1,29.94,ENE,71,0.0,0.0,23,0.00,,,-99.99,Weather View 32 v60,2013-09-23 15:11:00,
2013-09-23 11:21:00,70.0,30.4,29.94,ESE,112,0.0,0.0,23,0.00,,,-99.99,Weather View 32 v60,2013-09-23 15:21:00,
2013-09-23 11:31:00,70.0,30.4,29.94,ESE,103,0.0,0.0,23,0.00,,,-99.99,Weather View 32 v60,2013-09-23 15:31:00,
2013-09-23 11:37:00,70.2,30.5,29.94,South,178,0.0,0.0,23,0.00,,,-99.99,Weather View 32 v60,2013-09-23 15:37:00,
2013-09-23 11:46:00,70.5,30.8,29.94,ESE,119,0.0,0.0,23,0.00,,,-99.99,Weather View 32 v60,2013-09-23 15:46:00,
2013-09-23 11:51:00,70.7,31.0,29.94,SW,223,0.0,0.0,23,0.00,,,-99.99,Weather View 32 v60,2013-09-23 15:51:00,
2013-09-23 11:56:00,70.7,29.9,29.94,South,174,0.0,0.0,22,0.00,,,-99.99,Weather View 32 v60,2013-09-23 15:56:00,
2013-09-23 12:06:00,71.4,30.5,29.94,South,173,0.0,0.0,22,0.00,,,-99.99,Weather View 32 v60,2013-09-23 16:06:00,
2013-09-23 12:11:00,71.8,30.8,29.94,South,173,0.0,0.0,22,0.00,,,-99.99,Weather View 32 v60,2013-09-23 16:11:00,
2013-09-23 12:21:00,73.4,31.0,29.94,West,259,0.0,0.0,21,0.00,,,-99.99,Weather View 32 v60,2013-09-23 16:21:00,
2013-09-23 12:26:00,73.8,31.3,29.94,SSE,149,0.0,0.0,21,0.00,,,-99.99,Weather View 32 v60,2013-09-23 16:26:00,
2013-09-23 12:32:00,74.1,31.6,29.94,South,191,0.0,0.0,21,0.00,,,-99.99,Weather View 32 v60,2013-09-23 16:32:00,
2013-09-23 12:46:00,75.6,29.0,29.94,East,85,0.0,0.0,18,0.00,,,-99.99,Weather View 32 v60,2013-09-23 16:46:00,
2013-09-23 12:56:00,76.5,29.7,29.94,East,85,0.0,0.0,18,0.00,,,-99.99,Weather View 32 v60,2013-09-23 16:56:00,
2013-09-23 13:02:00,76.3,29.6,29.94,East,85,0.0,0.0,18,0.00,,,-99.99,Weather View 32 v60,2013-09-23 17:02:00,
2013-09-23 13:12:00,76.8,25.6,29.94,East,85,0.0,0.0,15,0.00,,,-99.99,Weather View 32 v60,2013-09-23 17:12:00,
2013-09-23 13:17:00,77.2,25.8,29.94,SSE,168,0.0,0.0,15,0.00,,,-99.99,Weather View 32 v60,2013-09-23 17:17:00,
2013-09-23 13:26:00,77.4,26.0,29.94,WSW,246,0.0,0.0,15,0.00,,,-99.99,Weather View 32 v60,2013-09-23 17:26:00,
2013-09-23 13:31:00,77.7,26.3,29.94,WNW,287,0.0,0.0,15,0.00,,,-99.99,Weather View 32 v60,2013-09-23 17:31:00,
2013-09-23 13:36:00,77.7,26.3,29.94,WNW,286,0.0,0.0,15,0.00,,,-99.99,Weather View 32 v60,2013-09-23 17:36:00,
2013-09-23 13:46:00,77.9,26.4,29.94,West,263,0.0,0.0,15,0.00,,,-99.99,Weather View 32 v60,2013-09-23 17:46:00,
2013-09-23 13:51:00,78.1,26.6,29.94,WNW,289,0.0,0.0,15,0.00,,,-99.99,Weather View 32 v60,2013-09-23 17:51:00,
2013-09-23 13:56:00,78.1,26.6,29.94,West,276,0.0,0.0,15,0.00,,,-99.99,Weather View 32 v60,2013-09-23 17:56:00,
2013-09-23 14:02:00,78.6,27.0,29.94,WSW,250,0.0,0.0,15,0.00,,,-99.99,Weather View 32 v60,2013-09-23 18:02:00,
2013-09-23 14:11:00,79.3,27.6,29.94,SW,219,0.0,0.0,15,0.00,,,-99.99,Weather View 32 v60,2013-09-23 18:11:00,
2013-09-23 14:22:00,79.5,27.7,29.94,WNW,297,0.0,0.0,15,0.00,,,-99.99,Weather View 32 v60,2013-09-23 18:22:00,
2013-09-23 14:31:00,79.5,27.7,29.91,SE,124,0.0,0.0,15,0.00,,,-99.99,Weather View 32 v60,2013-09-23 18:31:00,
2013-09-23 14:37:00,80.1,26.5,29.91,SSE,155,0.0,0.0,14,0.00,,,-99.99,Weather View 32 v60,2013-09-23 18:37:00,
2013-09-23 14:42:00,79.9,26.3,29.91,South,185,0.0,0.0,14,0.00,,,-99.99,Weather View 32 v60,2013-09-23 18:42:00,
2013-09-23 14:51:00,79.5,27.7,29.91,SE,129,0.0,0.0,15,0.00,,,-99.99,Weather View 32 v60,2013-09-23 18:51:00,
2013-09-23 14:57:00,79.9,26.3,29.91,NE,56,0.0,0.0,14,0.00,,,-99.99,Weather View 32 v60,2013-09-23 18:57:00,
2013-09-23 15:06:00,80.1,26.5,29.91,ESE,115,0.0,0.0,14,0.00,,,-99.99,Weather View 32 v60,2013-09-23 19:06:00,
2013-09-23 15:16:00,79.7,26.2,29.91,ESE,114,0.0,0.0,14,0.00,,,-99.99,Weather View 32 v60,2013-09-23 19:16:00,
2013-09-23 15:26:00,79.2,27.4,29.91,ESE,117,0.0,0.0,15,0.00,,,-99.99,Weather View 32 v60,2013-09-23 19:26:00,
2013-09-23 15:33:00,79.3,27.6,29.91,ESE,117,0.0,0.0,15,0.00,,,-99.99,Weather View 32 v60,2013-09-23 19:33:00,
2013-09-23 15:42:00,79.0,27.3,29.91,ESE,109,0.0,0.0,15,0.00,,,-99.99,Weather View 32 v60,2013-09-23 19:42:00,
2013-09-23 15:51:00,78.4,26.8,29.91,ESE,118,0.0,0.0,15,0.00,,,-99.99,Weather View 32 v60,2013-09-23 19:51:00,
2013-09-23 15:56:00,78.3,26.7,29.91,SE,132,0.0,0.0,15,0.00,,,-99.99,Weather View 32 v60,2013-09-23 19:56:00,
2013-09-23 16:06:00,77.9,26.4,29.91,SE,144,0.0,0.0,15,0.00,,,-99.99,Weather View 32 v60,2013-09-23 20:06:00,
2013-09-23 16:11:00,77.7,26.3,29.91,SE,132,0.0,0.0,15,0.00,,,-99.99,Weather View 32 v60,2013-09-23 20:11:00,
2013-09-23 16:17:00,77.5,26.1,29.91,South,169,0.0,0.0,15,0.00,,,-99.99,Weather View 32 v60,2013-09-23 20:17:00,
2013-09-23 16:26:00,77.2,22.4,29.91,West,272,0.0,0.0,13,0.00,,,-99.99,Weather View 32 v60,2013-09-23 20:26:00,
2013-09-23 16:34:00,77.0,22.3,29.91,West,275,0.0,0.0,13,0.00,,,-99.99,Weather View 32 v60,2013-09-23 20:34:00,
2013-09-23 16:41:00,77.0,25.7,29.91,West,271,0.0,0.0,15,0.00,,,-99.99,Weather View 32 v60,2013-09-23 20:41:00,
2013-09-23 16:46:00,76.8,25.6,29.91,West,271,0.0,0.0,15,0.00,,,-99.99,Weather View 32 v60,2013-09-23 20:46:00,
2013-09-23 16:56:00,76.1,21.6,29.91,East,95,0.0,0.0,13,0.00,,,-99.99,Weather View 32 v60,2013-09-23 20:56:00,
2013-09-23 17:01:00,75.9,21.4,29.91,East,95,0.0,0.0,13,0.00,,,-99.99,Weather View 32 v60,2013-09-23 21:01:00,
2013-09-23 17:06:00,75.7,21.3,29.91,East,95,0.0,0.0,13,0.00,,,-99.99,Weather View 32 v60,2013-09-23 21:06:00,
2013-09-23 17:11:00,75.4,21.0,29.88,ESE,114,0.0,0.0,13,0.00,,,-99.99,Weather View 32 v60,2013-09-23 21:11:00,
2013-09-23 17:21:00,75.0,20.7,29.88,ESE,114,0.0,0.0,13,0.00,,,-99.99,Weather View 32 v60,2013-09-23 21:21:00,
2013-09-23 17:31:00,74.7,20.4,29.88,ESE,114,0.0,0.0,13,0.00,,,-99.99,Weather View 32 v60,2013-09-23 21:31:00,
2013-09-23 17:36:00,74.5,20.3,29.88,ESE,114,0.0,0.0,13,0.00,,,-99.99,Weather View 32 v60,2013-09-23 21:36:00,
2013-09-23 17:46:00,74.1,20.0,29.88,ESE,114,0.0,0.0,13,0.00,,,-99.99,Weather View 32 v60,2013-09-23 21:46:00,
2013-09-23 17:51:00,73.9,19.9,29.88,ESE,114,0.0,0.0,13,0.00,,,-99.99,Weather View 32 v60,2013-09-23 21:51:00,
2013-09-23 17:56:00,73.8,19.7,29.91,ESE,114,0.0,0.0,13,0.00,,,-99.99,Weather View 32 v60,2013-09-23 21:56:00,
2013-09-23 18:01:00,73.6,19.6,29.91,ESE,114,0.0,0.0,13,0.00,,,-99.99,Weather View 32 v60,2013-09-23 22:01:00,
2013-09-23 18:11:00,73.4,24.4,29.91,ESE,114,0.0,0.0,16,0.00,,,-99.99,Weather View 32 v60,2013-09-23 22:11:00,
2013-09-23 18:21:00,73.0,24.1,29.91,ESE,114,0.0,0.0,16,0.00,,,-99.99,Weather View 32 v60,2013-09-23 22:21:00,
2013-09-23 18:26:00,72.9,23.9,29.88,ESE,114,0.0,0.0,16,0.00,,,-99.99,Weather View 32 v60,2013-09-23 22:26:00,
2013-09-23 18:35:00,72.7,23.8,29.88,ESE,114,0.0,0.0,16,0.00,,,-99.99,Weather View 32 v60,2013-09-23 22:35:00,
2013-09-23 18:41:00,72.0,23.2,29.88,ESE,114,0.0,0.0,16,0.00,,,-99.99,Weather View 32 v60,2013-09-23 22:41:00,
2013-09-23 18:46:00,71.8,23.1,29.88,ESE,114,0.0,0.0,16,0.00,,,-99.99,Weather View 32 v60,2013-09-23 22:46:00,
2013-09-23 18:51:00,71.6,22.9,29.88,ESE,114,0.0,0.0,16,0.00,,,-99.99,Weather View 32 v60,2013-09-23 22:51:00,
2013-09-23 18:57:00,71.4,22.8,29.91,ESE,114,0.0,0.0,16,0.00,,,-99.99,Weather View 32 v60,2013-09-23 22:57:00,
2013-09-23 19:07:00,70.9,22.4,29.91,ESE,114,0.0,0.0,16,0.00,,,-99.99,Weather View 32 v60,2013-09-23 23:07:00,
2013-09-23 19:16:00,70.3,23.4,29.91,ESE,114,0.0,0.0,17,0.00,,,-99.99,Weather View 32 v60,2013-09-23 23:16:00,
2013-09-23 19:21:00,70.2,23.2,29.91,ESE,114,0.0,0.0,17,0.00,,,-99.99,Weather View 32 v60,2013-09-23 23:21:00,
2013-09-23 19:31:00,69.8,22.9,29.91,ESE,114,0.0,0.0,17,0.00,,,-99.99,Weather View 32 v60,2013-09-23 23:31:00,
2013-09-23 19:36:00,69.6,22.8,29.91,ESE,114,0.0,0.0,17,0.00,,,-99.99,Weather View 32 v60,2013-09-23 23:36:00,
2013-09-23 19:46:00,69.3,22.5,29.91,ESE,114,0.0,0.0,17,0.00,,,-99.99,Weather View 32 v60,2013-09-23 23:46:00,
2013-09-23 19:56:00,69.1,22.3,29.91,ESE,114,0.0,0.0,17,0.00,,,-99.99,Weather View 32 v60,2013-09-23 23:56:00,
2013-09-23 20:06:00,68.7,22.0,29.91,ESE,114,0.0,0.0,17,0.00,,,-99.99,Weather View 32 v60,2013-09-24 00:06:00,
2013-09-23 20:16:00,68.4,21.8,29.91,ESE,114,0.0,0.0,17,0.00,,,-99.99,Weather View 32 v60,2013-09-24 00:16:00,
2013-09-23 20:22:00,68.2,21.6,29.91,ESE,114,0.0,0.0,17,0.00,,,-99.99,Weather View 32 v60,2013-09-24 00:22:00,
2013-09-23 20:31:00,68.0,25.3,29.91,ESE,114,0.0,0.0,20,0.00,,,-99.99,Weather View 32 v60,2013-09-24 00:31:00,
2013-09-23 20:36:00,67.8,25.2,29.91,ESE,114,0.0,0.0,20,0.00,,,-99.99,Weather View 32 v60,2013-09-24 00:36:00,
2013-09-23 20:46:00,67.8,27.5,29.91,ESE,114,0.0,0.0,22,0.00,,,-99.99,Weather View 32 v60,2013-09-24 00:46:00,
2013-09-23 20:52:00,67.8,27.5,29.91,ESE,114,0.0,0.0,22,0.00,,,-99.99,Weather View 32 v60,2013-09-24 00:52:00,
2013-09-23 20:57:00,67.8,27.5,29.91,ESE,114,0.0,0.0,22,0.00,,,-99.99,Weather View 32 v60,2013-09-24 00:57:00,
2013-09-23 21:06:00,67.8,27.5,29.91,ESE,114,0.0,0.0,22,0.00,,,-99.99,Weather View 32 v60,2013-09-24 01:06:00,
2013-09-23 21:12:00,67.8,27.5,29.91,ESE,114,0.0,0.0,22,0.00,,,-99.99,Weather View 32 v60,2013-09-24 01:12:00,
2013-09-23 21:21:00,67.8,28.6,29.91,ESE,114,0.0,0.0,23,0.00,,,-99.99,Weather View 32 v60,2013-09-24 01:21:00,
2013-09-23 21:31:00,67.8,28.6,29.91,ESE,114,0.0,0.0,23,0.00,,,-99.99,Weather View 32 v60,2013-09-24 01:31:00,
2013-09-23 21:37:00,67.6,28.4,29.91,ESE,114,0.0,0.0,23,0.00,,,-99.99,Weather View 32 v60,2013-09-24 01:37:00,
2013-09-23 21:46:00,67.6,28.4,29.94,ESE,114,0.0,0.0,23,0.00,,,-99.99,Weather View 32 v60,2013-09-24 01:46:00,
2013-09-23 21:51:00,67.6,28.4,29.94,ESE,114,0.0,0.0,23,0.00,,,-99.99,Weather View 32 v60,2013-09-24 01:51:00,
2013-09-23 22:01:00,67.6,28.4,29.94,ESE,114,0.0,0.0,23,0.00,,,-99.99,Weather View 32 v60,2013-09-24 02:01:00,
2013-09-23 22:06:00,67.6,29.5,29.94,ESE,114,0.0,0.0,24,0.00,,,-99.99,Weather View 32 v60,2013-09-24 02:06:00,
2013-09-23 22:16:00,67.5,29.3,29.94,ESE,114,0.0,0.0,24,0.00,,,-99.99,Weather View 32 v60,2013-09-24 02:16:00,
2013-09-23 22:26:00,67.5,29.3,29.94,ESE,114,0.0,0.0,24,0.00,,,-99.99,Weather View 32 v60,2013-09-24 02:26:00,
2013-09-23 22:31:00,67.5,29.3,29.94,ESE,114,0.0,0.0,24,0.00,,,-99.99,Weather View 32 v60,2013-09-24 02:31:00,
2013-09-23 22:37:00,67.5,30.3,29.94,ESE,114,0.0,0.0,25,0.00,,,-99.99,Weather View 32 v60,2013-09-24 02:37:00,
2013-09-23 22:46:00,67.1,30.0,29.94,ESE,114,0.0,0.0,25,0.00,,,-99.99,Weather View 32 v60,2013-09-24 02:46:00,
2013-09-23 22:56:00,67.1,30.0,29.94,ESE,114,0.0,0.0,25,0.00,,,-99.99,Weather View 32 v60,2013-09-24 02:56:00,
2013-09-23 23:01:00,66.9,29.9,29.94,ESE,114,0.0,0.0,25,0.00,,,-99.99,Weather View 32 v60,2013-09-24 03:01:00,
2013-09-23 23:11:00,66.7,30.7,29.94,ESE,114,0.0,0.0,26,0.00,,,-99.99,Weather View 32 v60,2013-09-24 03:11:00,
2013-09-23 23:16:00,66.7,30.7,29.94,ESE,114,0.0,0.0,26,0.00,,,-99.99,Weather View 32 v60,2013-09-24 03:16:00,
2013-09-23 23:26:00,66.6,30.5,29.94,ESE,114,0.0,0.0,26,0.00,,,-99.99,Weather View 32 v60,2013-09-24 03:26:00,
2013-09-23 23:32:00,66.6,30.5,29.94,ESE,114,0.0,0.0,26,0.00,,,-99.99,Weather View 32 v60,2013-09-24 03:32:00,
2013-09-23 23:38:00,66.6,30.5,29.94,ESE,114,0.0,0.0,26,0.00,,,-99.99,Weather View 32 v60,2013-09-24 03:38:00,
2013-09-23 23:46:00,66.6,30.5,29.94,ESE,114,0.0,0.0,26,0.00,,,-99.99,Weather View 32 v60,2013-09-24 03:46:00,
2013-09-23 23:57:00,66.7,30.7,29.94,ESE,114,0.0,0.0,26,0.00,,,-99.99,Weather View 32 v60,2013-09-24 03:57:00,